Albert Lea, MN

4:14 PM CST on February 07, 2016 (GMT -0600)
Albert Lea Municipal

Weather History for KAEL - March, 2013

Change the Weather History Date:

Saturday, March 16, 2013

  Actual Average Record
Temperature  
Mean Temperature 25 °F -  
Max Temperature 33 °F 36 °F 77 °F (2012)
Min Temperature 17 °F 21 °F 10 °F (1997)
Degree Days  
Heating Degree Days 40    
Moisture  
Dew Point 22 °F    
Average Humidity 88    
Maximum Humidity 100    
Minimum Humidity 74    
Precipitation  
Precipitation 0.00 in - - ()
Sea Level Pressure  
Sea Level Pressure 30.03 in    
Wind  
Wind Speed 11 mph (NNW)    
Max Wind Speed 16 mph    
Max Gust Speed 26 mph    
Visibility 8 miles    
Events      
Averages and records for this station are not official NWS values.
T = Trace of Precipitation, MM = Missing Value Source: NWS Daily Summary

Daily Weather History Graph

Daily Weather History Graph

Search for Another Location

Airport or City:

Trip Planner

Search our weather history database for the weather conditions in past years. The results will help you decide how hot, cold, wet, or windy it might be!

Date:

Astronomy

Mar. 16, 2013 Rise Set
Actual Time 7:23 AM CDT 7:21 PM CDT
Civil Twilight 6:54 AM CDT 7:49 PM CDT
Nautical Twilight 6:21 AM CDT 8:23 PM CDT
Astronomical Twilight 5:47 AM CDT 8:57 PM CDT
Moon 9:44 AM CDT (3/16) No Moon Set
Length of Visible Light 12h 55m
Length of Day
11h 57m
Waxing Crescent, 23% of the Moon is Illuminated
Mar 16
Waxing Crescent
Mar 19
First Quarter
Mar 27
Full
Apr 2
Last Quarter
Apr 10
New

Hourly Weather History & Observations

Time (CDT) Temp. Windchill Dew Point Humidity Pressure Visibility Wind Dir Wind Speed Gust Speed Precip Events Conditions
12:33 AM 33.8 °F 27.7 °F 33.8 °F 100% 29.82 in 4.0 mi North 6.9 mph - N/A   Overcast
12:53 AM 33.8 °F 25.8 °F 33.8 °F 100% 29.82 in 4.0 mi North 10.4 mph - N/A   Overcast
1:14 AM 32.0 °F 23.6 °F 32.0 °F 100% 29.82 in 3.0 mi North 10.4 mph - N/A   Overcast
1:33 AM 30.2 °F 21.3 °F 30.2 °F 100% 29.83 in 3.0 mi North 10.4 mph - N/A   Overcast
1:53 AM 30.2 °F 21.3 °F 30.2 °F 100% 29.83 in 5.0 mi North 10.4 mph - N/A   Overcast
2:14 AM 30.2 °F 20.2 °F 30.2 °F 100% 29.84 in 4.0 mi North 12.7 mph - N/A   Overcast
2:33 AM 30.2 °F 21.3 °F 30.2 °F 100% 29.85 in 7.0 mi North 10.4 mph - N/A   Overcast
2:53 AM 30.2 °F 20.2 °F 30.2 °F 100% 29.85 in 7.0 mi North 12.7 mph 18.4 mph N/A   Overcast
3:14 AM 28.4 °F 19.7 °F 28.4 °F 100% 29.86 in 4.0 mi North 9.2 mph - N/A   Overcast
3:33 AM 28.4 °F 19.1 °F 28.4 °F 100% 29.86 in 7.0 mi North 10.4 mph - N/A   Overcast
3:53 AM 28.4 °F 19.1 °F 28.4 °F 100% 29.87 in 7.0 mi North 10.4 mph - N/A   Overcast
4:14 AM 28.4 °F 19.1 °F 28.4 °F 100% 29.88 in 3.0 mi North 10.4 mph - N/A   Overcast
4:33 AM 28.4 °F 18.5 °F 28.4 °F 100% 29.89 in 2.0 mi North 11.5 mph 17.3 mph N/A   Overcast
4:53 AM 26.6 °F 15.2 °F 26.6 °F 100% 29.90 in 5.0 mi North 13.8 mph - N/A   Overcast
5:13 AM 26.6 °F 17.5 °F 26.6 °F 100% 29.91 in 3.0 mi NNW 9.2 mph 17.3 mph N/A   Overcast
5:33 AM 26.6 °F 15.7 °F 26.6 °F 100% 29.91 in 5.0 mi North 12.7 mph - N/A   Overcast
5:54 AM 26.6 °F 14.7 °F 26.6 °F 100% 29.93 in 4.0 mi NNW 15.0 mph 20.7 mph N/A   Overcast
6:13 AM 26.6 °F 15.7 °F 26.6 °F 100% 29.95 in 5.0 mi NNW 12.7 mph 18.4 mph N/A   Overcast
6:33 AM 26.6 °F 14.3 °F 26.6 °F 100% 29.95 in 2.5 mi NNW 16.1 mph 21.9 mph N/A   Overcast
6:54 AM 24.8 °F 11.9 °F 24.8 °F 100% 29.98 in 5.0 mi North 16.1 mph - N/A   Overcast
7:13 AM 24.8 °F 12.9 °F 24.8 °F 100% 29.99 in 7.0 mi North 13.8 mph 21.9 mph N/A   Overcast
7:33 AM 24.8 °F 12.9 °F 23.0 °F 93% 30.01 in 10.0 mi NNW 13.8 mph 21.9 mph N/A   Overcast
7:54 AM 24.8 °F 12.4 °F 23.0 °F 93% 30.02 in 10.0 mi NNW 15.0 mph 19.6 mph N/A   Overcast
8:13 AM 23.0 °F 10.6 °F 21.2 °F 93% 30.03 in 10.0 mi North 13.8 mph 26.5 mph N/A   Overcast
8:54 AM 23.0 °F 10.6 °F 21.2 °F 93% 30.05 in 10.0 mi NNW 13.8 mph 20.7 mph N/A   Mostly Cloudy
9:13 AM 23.0 °F 10.6 °F 21.2 °F 93% 30.05 in 10.0 mi NNW 13.8 mph 19.6 mph N/A   Overcast
9:33 AM 21.2 °F 9.5 °F 21.2 °F 100% 30.06 in 10.0 mi NNW 11.5 mph 20.7 mph N/A   Overcast
9:54 AM 21.2 °F 9.5 °F 21.2 °F 100% 30.06 in 10.0 mi North 11.5 mph 17.3 mph N/A   Overcast
10:13 AM 23.0 °F 11.7 °F 21.2 °F 93% 30.06 in 10.0 mi NNW 11.5 mph - N/A   Overcast
10:33 AM 23.0 °F 10.6 °F 21.2 °F 93% 30.07 in 10.0 mi NNW 13.8 mph - N/A   Scattered Clouds
10:54 AM 24.8 °F 13.4 °F 21.2 °F 86% 30.07 in 10.0 mi NNW 12.7 mph - N/A   Scattered Clouds
11:13 AM 24.8 °F 15.3 °F 21.2 °F 86% 30.08 in 10.0 mi NW 9.2 mph - N/A   Scattered Clouds
11:33 AM 24.8 °F 14.0 °F 21.2 °F 86% 30.08 in 10.0 mi NNW 11.5 mph 17.3 mph N/A   Scattered Clouds
11:54 AM 24.8 °F 11.9 °F 19.4 °F 80% 30.08 in 10.0 mi NNW 16.1 mph 20.7 mph N/A   Scattered Clouds
12:13 PM 24.8 °F 12.4 °F 21.2 °F 86% 30.08 in 10.0 mi North 15.0 mph - N/A   Scattered Clouds
12:33 PM 24.8 °F 12.9 °F 21.2 °F 86% 30.09 in 10.0 mi North 13.8 mph 18.4 mph N/A   Clear
12:54 PM 24.8 °F 12.4 °F 21.2 °F 86% 30.09 in 10.0 mi NNW 15.0 mph 21.9 mph N/A   Clear
1:13 PM 24.8 °F 11.9 °F 19.4 °F 80% 30.09 in 10.0 mi NNW 16.1 mph 25.3 mph N/A   Clear
1:33 PM 26.6 °F 16.2 °F 19.4 °F 74% 30.10 in 10.0 mi NNW 11.5 mph 16.1 mph N/A   Scattered Clouds
1:54 PM 26.6 °F 15.7 °F 19.4 °F 74% 30.10 in 10.0 mi NNW 12.7 mph 18.4 mph N/A   Mostly Cloudy
2:13 PM 24.8 °F 14.6 °F 19.4 °F 80% 30.10 in 10.0 mi NNW 10.4 mph 17.3 mph N/A   Mostly Cloudy
2:33 PM 24.8 °F 14.6 °F 19.4 °F 80% 30.09 in 10.0 mi North 10.4 mph 17.3 mph N/A   Mostly Cloudy
2:54 PM 24.8 °F 16.1 °F 19.4 °F 80% 30.10 in 10.0 mi NNW 8.1 mph 16.1 mph N/A   Overcast
3:13 PM 24.8 °F 14.6 °F 19.4 °F 80% 30.08 in 10.0 mi NNW 10.4 mph 17.3 mph N/A   Overcast
3:33 PM 24.8 °F 14.6 °F 19.4 °F 80% 30.08 in 10.0 mi NNW 10.4 mph 17.3 mph N/A   Overcast
3:53 PM 24.8 °F 15.3 °F 19.4 °F 80% 30.08 in 10.0 mi NNW 9.2 mph 16.1 mph N/A   Overcast
4:13 PM 24.8 °F 13.4 °F 19.4 °F 80% 30.07 in 10.0 mi North 12.7 mph - N/A   Overcast
4:33 PM 26.6 °F 16.2 °F 19.4 °F 74% 30.06 in 10.0 mi NNW 11.5 mph 16.1 mph N/A   Mostly Cloudy
4:54 PM 26.6 °F 17.5 °F 19.4 °F 74% 30.07 in 10.0 mi NNW 9.2 mph - N/A   Scattered Clouds
5:13 PM 24.8 °F 15.3 °F 19.4 °F 80% 30.08 in 10.0 mi NNW 9.2 mph - N/A   Scattered Clouds
5:33 PM 24.8 °F 16.9 °F 17.6 °F 74% 30.08 in 10.0 mi NW 6.9 mph - N/A   Scattered Clouds
5:54 PM 24.8 °F 16.1 °F 17.6 °F 74% 30.08 in 10.0 mi NW 8.1 mph - N/A   Clear
6:13 PM 24.8 °F 15.3 °F 17.6 °F 74% 30.09 in 10.0 mi NW 9.2 mph - N/A   Clear
6:33 PM 24.8 °F 17.9 °F 17.6 °F 74% 30.09 in 10.0 mi NW 5.8 mph - N/A   Clear
6:54 PM 24.8 °F 16.1 °F 19.4 °F 80% 30.10 in 10.0 mi NW 8.1 mph - N/A   Scattered Clouds
7:13 PM 23.0 °F 13.9 °F 15.8 °F 74% 30.11 in 10.0 mi NW 8.1 mph - N/A   Scattered Clouds
7:34 PM 21.2 °F 10.1 °F 15.8 °F 80% 30.11 in 10.0 mi NW 10.4 mph - N/A   Clear
7:53 PM 21.2 °F 10.9 °F 15.8 °F 80% 30.11 in 10.0 mi NNW 9.2 mph - N/A   Clear
8:13 PM 21.2 °F 9.5 °F 15.8 °F 80% 30.12 in 10.0 mi NNW 11.5 mph - N/A   Clear
8:33 PM 21.2 °F 11.7 °F 15.8 °F 80% 30.13 in 10.0 mi NNW 8.1 mph - N/A   Clear
8:54 PM 21.2 °F 12.6 °F 15.8 °F 80% 30.14 in 10.0 mi NW 6.9 mph - N/A   Clear
9:13 PM 21.2 °F 10.9 °F 15.8 °F 80% 30.15 in 10.0 mi NNW 9.2 mph - N/A   Clear
9:33 PM 19.4 °F 7.9 °F 15.8 °F 86% 30.15 in 10.0 mi NNW 10.4 mph - N/A   Clear
9:54 PM 19.4 °F 10.4 °F 15.8 °F 86% 30.16 in 10.0 mi NW 6.9 mph 16.1 mph N/A   Clear
10:13 PM 19.4 °F 10.4 °F 15.8 °F 86% 30.17 in 10.0 mi NNW 6.9 mph - N/A   Scattered Clouds
10:33 PM 17.6 °F 8.2 °F 15.8 °F 93% 30.18 in 10.0 mi NW 6.9 mph - N/A   Clear
10:54 PM 17.6 °F 9.3 °F 15.8 °F 93% 30.19 in 10.0 mi NW 5.8 mph - N/A   Clear
11:13 PM 17.6 °F 12.3 °F 12.2 °F 79% 30.19 in 10.0 mi NW 3.5 mph - N/A   Clear
11:33 PM 17.6 °F 9.3 °F 12.2 °F 79% 30.20 in 10.0 mi NW 5.8 mph - N/A   Clear
11:54 PM 17.6 °F 9.3 °F 12.2 °F 79% 30.20 in 10.0 mi NNW 5.8 mph - N/A   Clear